User: anonymous   Login
Location: Unspecified
(0.0000°N, 0.0000°E)
Time: 14:03:59
(UTC+00:00)
Language:

CICERO 8 - Orbit

View from above orbital plane
View from above orbital plane
View from above satellite
View from above satellite

Ground track
Ground track

The orbit data is extracted from the following two-line orbital elements,

1 43737U 18096U   19175.62529552 +.00001128 +00000-0 +43967-4 0  9992
2 43737 097.4586 245.9502 0021468 322.5356 037.4385 15.27904502031671
Epoch (UTC): 24 June 2019 15:00:25
Eccentricity: 0.0021468
inclination: 97.4586°
perigee height: 467 km
apogee height: 497 km
right ascension of ascending node: 245.9502°
argument of perigee: 322.5356°
revolutions per day: 15.27904502
mean anomaly at epoch: 37.4385°
orbit number at epoch: 3167

The dashed part of the orbit path shows where the satellite is in the earth's shadow,  

DLR